Regional Weather Roundup
Issued by NWS

Home | Current Version | Previous Version | Text Only | Print | Product List | Glossary On
Versions: 1 2 3 4 5 6 7 8 9 10 11 12 13 14 15 16 17 18 19 20 21 22 23 24 25 26 27 28 29 30 31 32 33 34 35 36 37 38 39 40 41 42 43 44 45 46 47 48 49 50
000
ASUS46 KLOX 032212
RWRCA

SOUTHERN CALIFORNIA WEATHER ROUNDUP
NATIONAL WEATHER SERVICE OXNARD CALIFORNIA
200 PM PST TUE MAR 03 2015

NOTE: "FAIR" INDICATES FEW OR NO CLOUDS BELOW 12,000 FEET WITH NO
SIGNIFICANT WEATHER AND/OR OBSTRUCTIONS TO VISIBILITY.

  -  STATIONS PRECEEDED BY AN ASTERISK (*) ARE NOT NWS OR FAA
     STATIONS AND ARE NOT SUBJECT TO NWS AND FAA QUALITY CONTROL.

CAZ041-042-087-032300-
LA AND ORANGE COUNTY COASTAL AREAS


CITY           SKY/WX    TMP DP  RH WIND       PRES   REMARKS
L.A. DOWNTOWN  SUNNY     64  42  44 VRB3      29.90F
L.A. AIRPORT   MOSUNNY   60  47  61 W17       29.91F
LONG BEACH     SUNNY     65  42  43 SW9       29.90F

CITY           SKY/WX    TMP DP  RH WIND       PRES   REMARKS
AVALON           N/A     61 N/A N/A MISG        N/A
FULLERTON      SUNNY     67  41  38 SW9       29.88F
*GETTY CENTER    N/A    N/A N/A N/A SW13        N/A
HAWTHORNE      SUNNY     65  42  43 W15       29.91F
*LOS ALAMITOS  MOSUNNY   65  46  50 SW15      29.90F
*REDONDO BEACH   N/A     64  45  49 W1        29.92F
SANTA ANA      MOSUNNY   66  41  40 W12       29.90F
STA MONICA APT SUNNY     62  43  49 SW14G20   29.91F
TORRANCE       MOSUNNY   64  45  48 W16       29.92F
*UCLA            N/A     59  43  55 SW12      29.88F

$$

CAZ547-548-048-032300-
LA COUNTY VALLEYS AND INLAND EMPIRE


CITY           SKY/WX    TMP DP  RH WIND       PRES   REMARKS
BURBANK        SUNNY     64  37  36 VRB7      29.88F
VAN NUYS       CLOUDY    65  39  38 VRB3      29.88F

CITY           SKY/WX    TMP DP  RH WIND       PRES   REMARKS
CORONA AIRPORT CLEAR     64  31  29 CALM      29.89F
CHINO          MOSUNNY   65  38  36 W6        29.89F
MARCH AFB      SUNNY     61  32  33 CALM      29.88F
*NORTHRIDGE      N/A     64  36  34 SW1         N/A
ONTARIO        MOSUNNY   62  35  36 CALM      29.88F
*PASADENA        N/A     68  41  37 NE2         N/A
POMONA         MOSUNNY   63  36  36 SW8       29.91F
RIVERSIDE      MOSUNNY   65  31  28 VRB3      29.88F
SAN BERNARDINO NOT AVBL
*SAN GABRIEL     N/A     67  30  25 CALM      29.85F
*SAUGUS          N/A     63  41  44 W2G32       N/A
*WHITEMAN AP   PTSUNNY   63  37  39 SE7       29.91F
*WHITTIER HILL   N/A     66  37  34 S7          N/A
*WOODLAND HILL   N/A     64  37  36 SW3         N/A

$$

CAZ054-055-032300-
LA AND SAN BERNARDINO COUNTY MOUNTAINS


CITY           SKY/WX    TMP DP  RH WIND       PRES   REMARKS
*BIG BEAR AIRP MOCLDY    36  23  60 E9        29.89F WCI  29
*CHILAO          N/A     45  27  48 N7          N/A
MT WILSON NWS    N/A     37  34  87 MISG        N/A
SANDBERG       MOSUNNY   46  34  62 N22G28    29.94F
*WARM SPRINGS    N/A     52  37  56 W7          N/A

$$

CAZ028-029-059-060-099-032300-
ANTELOPE VALLEY AND SURROUNDING AREAS


CITY           SKY/WX    TMP DP  RH WIND       PRES   REMARKS
LANCASTER      PTSUNNY   58  31  35 N7        29.90F
PALMDALE       PTSUNNY   56  30  37 MISG      29.91F
*POPPY PARK      N/A     59  38  46 W13         N/A

CITY           SKY/WX    TMP DP  RH WIND       PRES   REMARKS
29 PALMS       MOSUNNY   58  34  40 CALM      29.95F
BARSTOW/DAGGET SUNNY     60  27  28 NW7       29.89F
BISHOP         MOSUNNY   57  17  21 N15G26    29.89F
CHINA LAKE     MOSUNNY   58  31  35 CALM      29.88F
EDWARDS AFB    MOSUNNY   58  32  38 VRB2      29.88F
MOJAVE         FAIR      55  36  47 W14       29.90F
NEEDLES        NOT AVBL
VICTORVILLE      N/A     55  27  33 NW8       29.90S

$$

CAZ039-040-032300-
VENTURA AND SANTA BARBARA COUNTY COAST


CITY           SKY/WX    TMP DP  RH WIND       PRES   REMARKS
CAMARILLO      SUNNY     63  42  46 W15       29.91F
OXNARD AIRPORT SUNNY     62  45  53 W14       29.92F
*POINT MUGU    MOSUNNY   64  43  46 W16       29.93F
SBA APT/GOLETA MOSUNNY   64  44  48 SW8       29.92F
*SANTA BARBARA   N/A     67  42  41 NE1       29.99F
*VENTURA         N/A     66  43  44 SW10      29.96S

$$

CAZ044-045-032300-
VENTURA COUNTY VALLEYS


CITY           SKY/WX    TMP DP  RH WIND       PRES   REMARKS
*SIMI VALLEY     N/A     64  45  50 W2        29.88F
*OJAI            N/A     63  49  60 W1        29.87S
*FILLMORE        N/A     65  48  53 W1        29.81S

$$

CAZ053-032300-
VENTURA COUNTY MOUNTAINS


CITY           SKY/WX    TMP DP  RH WIND       PRES   REMARKS
*LOCKWOOD VLY    N/A     41  30  65 MISG        N/A
*ROSE VALLEY     N/A     57  46  67 MISG        N/A

$$

CAZ034-035-036-032300-
CENTRAL COAST AND SANTA YNEZ VALLEY


CITY           SKY/WX    TMP DP  RH WIND       PRES   REMARKS
SAN LUIS OBISP MOSUNNY   66  43  43 NW10      29.95F
SANTA MARIA    MOSUNNY   66  46  48 NW20      29.94F

CITY           SKY/WX    TMP DP  RH WIND       PRES   REMARKS
*CAL POLY SLO    N/A     64  46  52 NE6G12      N/A
*LOMPOC        SUNNY     66  45  45 W14G20    29.95F
*PISMO BEACH     N/A     67  43  42 NW7       29.95F
*SANTA YNEZ    PTSUNNY   63  36  36 NE5       29.91F

$$

CAZ037-038-051-032300-
SAN LUIS OBISPO COUNTY INTERIOR AND CUYAMA VALLEY


CITY           SKY/WX    TMP DP  RH WIND       PRES   REMARKS
*CUYAMA          N/A     53  38  56 N2        29.98F
PASO ROBLES    SUNNY     61  41  47 VRB5      29.97F

$$

CAZ032-033-061-032300-
SOUTHERN DESERTS


CITY           SKY/WX    TMP DP  RH WIND       PRES   REMARKS
BLYTHE         SUNNY     63  42  46 N5        29.88F
IMPERIAL       SUNNY     65  38  36 VRB6      29.87F
PALM SPRINGS   MOSUNNY   67  35  30 VRB5      29.88F
THERMAL        SUNNY     70  37  29 W3        29.85F

$$

ELSEWHERE ACROSS THE WESTERN UNITED STATES AND MEXICO


CITY           SKY/WX    TMP DP  RH WIND       PRES   REMARKS
DENVER, CO     CLOUDY    19  13  77 E5        29.82F WCI  12
GRAND CANYON,  PTSUNNY   32  26  78 SW12      29.85F WCI  23
HONOLULU, HI   MOSUNNY   82  66  57 NE12G20   30.03F
KAHULUI, MAUI  MOSUNNY   81  70  69 NE15      30.04F
LAKE TAHOE, CA SUNNY     41  21  44 NE10      29.96F WCI  35
LAS VEGAS, NV  PTSUNNY   55  35  47 S7        29.83F
MAMMOTH LAKES, FAIR      39  18  41 N12G17    29.93F WCI  32
MEXICO CITY, M SUNNY     79  32  18 SE9       30.14F
PHOENIX, AZ    PTSUNNY   62  44  51 S9        29.84F
PORTLAND, OR   MOSUNNY   54  26  34 W8        30.20F
RENO, NV       MOSUNNY   44  18  35 NE9       30.02F
SALT LAKE CITY PTSUNNY   36  25  64 N12       29.90R WCI  28
SAN DIEGO, CA  MOSUNNY   64  45  49 NW13      29.92F
SAN FRANCISCO, MOSUNNY   62  47  57 N5        30.01F
SAN JOSE, CA   MOSUNNY   64  41  42 W10       29.99F
SEATTLE, WA    MOSUNNY   50  18  28 W8        30.23F
TIJUANA, MEX   MOSUNNY   61  45  55 NW12      29.92F

$$

STATION/POSITION TIME  TEMP    WIND        PRES    VSBY  WAVE
                       AIR SEA DIR/SP/G                  HT/PER
                 (UTC) (F)     (DEG/KT/KT) (MB)    (MI)  (FT/S)
POINT ARGUELLO B NOT AVBL
WEST SANTA BARBA 2200   57 58  320/ 19/ 25 1013.2F         7/10
POINT CONCEPTION NOT AVBL
EAST SANTA BARBA NOT AVBL
SANTA MONICA BAY 2200   58 62  280/ 10/ 12 1013.7F         3/19



USA.gov is the U.S. government's official web portal to all federal, state and local government web resources and services.